Regional Weather Roundup
Issued by NWS Upton, NY

Current Version | Previous Version | Graphics & Text | Print | Product List | Glossary Off
Versions: 1 2 3 4 5 6 7 8 9 10 11 12 13 14 15 16 17 18 19 20 21 22 23 24 25 26 27 28 29 30 31 32 33 34 35 36 37 38 39 40 41 42 43 44 45 46 47 48 49 50

000
ASUS41 KOKX 280204
RWROKX

REGIONAL WEATHER ROUNDUP
NATIONAL WEATHER SERVICE NEW YORK NY
1000 PM EDT WED JUL 27 2016

NOTE: "FAIR" INDICATES FEW OR NO CLOUDS BELOW 12,000 FEET WITH NO
SIGNIFICANT WEATHER AND/OR OBSTRUCTIONS TO VISIBILITY.

NYZ071-072-176-178-NJZ106-104-280300-
NEW YORK CITY METRO AREA

CITY           SKY/WX    TMP DP  RH WIND       PRES   REMARKS
Central Park   CLOUDY    83  66  56 VRB3      29.94R
LaGuardia APRT MOCLDY    82  69  64 SE10      29.91R
Kennedy INTL   PTCLDY    78  73  84 SE6       29.93R
Newark/Liberty MOCLDY    82  68  62 S3        29.90R
Bronx Bot Gard   N/A     79  64  61 E2        29.92S
Wall St Helipt CLOUDY    82  68  61 W3        29.92R
Teterboro      CLEAR     83  66  56 SE5       29.90R
$$

NYZ177-179-078>081-280300-
LONG ISLAND NEW YORK

CITY           SKY/WX    TMP DP  RH WIND       PRES   REMARKS
Farmingdale    CLEAR     77  72  84 MISG      29.93R
MacArthur/ISP  PTCLDY    76  72  87 SW5       29.92R
Shirley        CLEAR     76  71  85 SW5       29.93S
Riverhead      NOT AVBL
Westhampton    CLEAR     75  70  84 SW7       29.94R
Southhampton     N/A     75  72  88 SW3       29.88F
Bridgehampton    N/A     73  70  88 S3        29.91R
East Hampton   FAIR      73  70  90 SW5       29.92S
Montauk          N/A     75  71  87 SW7       29.92S
$$

NYZ052-065-067-280300-
HUDSON VALLEY

CITY           SKY/WX    TMP DP  RH WIND       PRES   REMARKS
White Plains   PTCLDY    74  65  73 SE3       29.93R
Newburgh       CLEAR     75  64  69 W5        29.94R
Montgomery     CLEAR     72  65  78 CALM      29.92S
Poughkeepsie   CLEAR     75  64  68 CALM      29.91R
Albany         MOCLDY    77  61  57 CALM      29.91R
$$

NJZ001-105-106-008-010-013-015-019>022-104-280300-
NEW JERSEY

CITY           SKY/WX    TMP DP  RH WIND       PRES   REMARKS
Newark/Liberty MOCLDY    82  68  62 S3        29.90R
Teterboro      CLEAR     83  66  56 SE5       29.90R
Caldwell       CLEAR     80  64  58 CALM      29.91S
Morristown     PTCLDY    73  66  78 CALM      29.92R
Somerville     CLEAR     75  68  78 NW5       29.90R
Linden         FAIR      83  66  56 S3        29.92S
Sussex         CLEAR     70  66  87 CALM      29.94S
Abdover          N/A     71  66  84 CALM      29.94S
Trenton        PTCLDY    82  69  64 SE3       29.91R
Millville      CLEAR     77  74  90 CALM      29.91R
Atlantic City  CLEAR     78  73  84 SE3       29.91S
Wrightstown    CLEAR     78  74  89 E5        29.89S
Toms River     CLOUDY    77  75  93 CALM      29.92S
Belmar         CLEAR     77  73  87 S3        29.93S
$$

PAZ047>061-062-071-280300-
EASTERN PENNSYLVANIA

CITY           SKY/WX    TMP DP  RH WIND       PRES   REMARKS
Philadelphia   PTCLDY    87  64  46 NW8       29.91R
Allentown      CLEAR     79  61  53 CALM      29.92S
Scranton       CLEAR     75  61  61 E3        29.95S
$$

CTZ002-004>006-009-010-012-RIZ004-006-007-MAZ004-011-015-280300-
SOUTHERN NEW ENGLAND
 IN CT

CITY           SKY/WX    TMP DP  RH WIND       PRES   REMARKS
Bradley INTL   PTCLDY    81  59  47 W8        29.90R
Hartford       CLEAR     81  65  58 S7        29.90R
Danbury        CLEAR     75  64  68 CALM      29.94R
Wtrbury/Oxford   N/A     75  61  60 SW3       29.96R
Bridgeport     PTCLDY    79  69  71 S9        29.92R
Meriden        CLEAR     78  66  66 CALM      29.92R
New Haven      CLEAR     77  69  76 SW5       29.93R
Chester        FAIR      75  68  78 SW5       29.94R
Groton         MOCLDY    75  70  84 SW6       29.91R
Wilimantic     NOT AVBL

 IN RI

CITY           SKY/WX    TMP DP  RH WIND       PRES   REMARKS
Providence     PTCLDY    77  62  59 SW6       29.90R
Block Island   CLEAR     74  69  85 SW15      29.92R
Westerly       CLEAR     76  68  76 SW7       29.92R
 IN MA

CITY           SKY/WX    TMP DP  RH WIND       PRES   REMARKS
Boston         PTCLDY    78  65  63 S6        29.87R
Worchester     PTCLDY    74  57  55 SW7       29.94R
Westfield      CLEAR     74  61  63 CALM      29.90R
Provincetown   CLEAR     74  68  81 S9        29.90S
Nantucket      CLEAR     69  66  90 S5        29.92S
$$

ANZ330-335-338-340-345-350-353-355-280300-
COASTAL MARINE OBSERVATIONS


STATION/POSITION TIME  SKY/WX   TEMP    WIND        PRES    VSBY  WAVE
                                AIR SEA DIR/SP/G                  HT/PER
                 (UTC)          (F)     (DEG/KT/KT) (MB)    (MI)  (FT/S)
NY HARB ENTRANCE 0050            78 77  200/ 10/ 12 1012.3          1/ 6
20S FIRE ISLAND  0050            77 77  170/  8/ 10 1012.7          2/ 6
GREAT SOUTH BAY  0115            78 82  220/ 10/ 14   N/A
23 SSW MONTAUK P 0050            74 71  200/  8/  8 1013.3          1/ 6
15 E BARNEGAT LI 0122               78                N/A           2/ 7
HUDSON CANYON    0050            78 79              1013.3          2/ 6
KINGS POINT      0100               74                N/A
EXECUTION ROCKS  0100            79     180/  6/  8   N/A
CENTRAL LI SOUND 0100            78 76  210/ 16/ 17   N/A           1/ 2
EASTERN LI SOUND 0100            73 66  190/ 12/ 14   N/A
ROBBINS REEF     0112                   160/ 11/ 12   N/A
$$


>>>>>>>>>>>>>>>>>>>>>>>>>>>> KEY <<<<<<<<<<<<<<<<<<<<<<<<<<<
>                                                          <
>     SKY/WX - Sky Condition/Present Weather               <
>     TMP    - Temperature in Fahrenheit                   <
>     DP     - Dew Point in Fahrenheit                     <
>     RH     - Relative Humidity in Percent                <
>     WIND   - Direction (from) and Speed in MPH           <
>     PRES   - Mean Sea Level Pressure (inches of Hg)      <
>     WCI    - Wind Chill Index                            <
>     VSB    - VISIBILITY IN MILES                         <
>     HX     - HEAT INDEX                                  <
>     TC     - TEMPERATURE IN CELSIUS                      <
>     VRB    - VARIABLE WIND DIRECTION                     <
>                                                          <
>>>>>>>>>>>>>>>>>>>>>>>>>>>> KEY <<<<<<<<<<<<<<<<<<<<<<<<<<<



USA.gov is the U.S. government's official web portal to all federal, state and local government web resources and services.